Location: *
(18.5200°S, 46.4500°E)
Time: 19:45:51
(UTC+00:00)

Cosmos 1452 Rocket - Pass Details

Date: 19 July 2019
Orbit: 768 x 774 km, 74.1° (Epoch: 24 August)

Event Time Altitude Azimuth Distance (km) Brightness Sun altitude
Rises 15:53:56 0° 9° (N) 3,219 6.8 -18.5°
Reaches altitude 10° 15:56:32 10° 20° (NNE) 2,300 5.9 -19.1°
Enters shadow 16:00:17 29° 63° (ENE) 1,380 4.4 -20.0°
